星链-31829 (STARLINK-31829 )

导读 | 豆包AI

STARLINK-31829是美国星链计划中的一颗卫星,于2024年5月14日发射升空,属于SpaceX公司打造的低轨卫星互联网星座组网卫星。星链计划旨在构建全球卫星互联网,为全球偏远地区等提供高速网络服务,该卫星入轨后进一步扩充了星链星座的规模,推进了全球网络覆盖的进程。

基本信息
目录编号:
59770
目录名称:
STARLINK-31829
国际标识:
2024-091T
轨道中心:
EARTH
卫星名称:
星链-31829
卫星全名:
星链-31829 (STARLINK-31829 )
卫星状态:
在轨 (已飞行670 天)
发射日期:
2024-05-14 UTC
国别 :
美国 (US)
星等 :
--
轨道信息
数据来源 国际轨道数据 AOE轨道数据
星历时间 2026-03-15T09:03:09+0800
18小时前
查看轨道信息
2026-03-13T16:00:00+0800
2天前
查看轨道信息
半长轴 6853.42km 6853.35km
偏心率 0.0001164 0.0001347
轨道倾角 53.163° 53.161°
近地点辐角 96.505° 32.160°
升交点赤经 2.053° 10.003°
平近点角 263.608° 260.052°
近地点 474.485km 474.289km
远地点 476.081km 476.137km
周期 94.107分钟 94.105分钟
每日圈数 15.301773 15.30201
详细信息
固有亮度:
5
最大亮度:
1.5
卫星平台:
Starlink v2.0 mini
覆盖范围:
全球
运营商:
太空探索技术公司
运营商所在国:
美国
制造商(研发单位):
太空探索技术公司
制造商所在国:
美国
使用方式:
暂无
卫星简介
星链(Starlink)计划是由太空探索技术公司(SpaceX)提出的一个巨型低轨卫星互联网星座项目,计划在2019年至2024年间在太空搭建由约1.2万颗卫星组成的“星链”网络,其中1584颗将部署在地球上空550千米处的近地轨道,并从2020年开始工作。该卫星仍在工作。
2D轨道图
3D轨道图
轨道高度分析图
轨道倾角分析图
轨道综合分析图
查看轨道综合分析图